Flag for United Arab Emirates Weather past 2 weeks in Abu Dhabi, Abu Dhabi, United Arab Emirates

Now
91 °F

Passing clouds.


Feels Like: 94 °F
Forecast: 81 / 93 °F
Wind: 6 mph from Southwest

Location: Abu Dhabi Bateen Airport


UV Index: 7 (High)

Visibility: N/A


Pressure: 29.83 "Hg

Humidity: 44%

Dew point: 66 °F

Location of Abu DhabiLocation

Historic Weather in Abu Dhabi

°F

Abu Dhabi temperature yesterday

Maximum temperature yesterday: 100 °F (at 12:00 PM)
Minimum temperature yesterday: 79 °F (at 5:00 AM)
Average temperature yesterday: 89 °F

Past Weeks' High & Low Weather Summary

 TemperatureHumidityPressure
High104 °F (Apr 15, 1:00 PM)89% (Apr 4, 3:00 AM)30.12 "Hg (Apr 4, 3:00 AM)
Low70 °F (Apr 5, 6:00 AM)9% (Apr 10, 1:00 PM)29.65 "Hg (Apr 3, 3:00 PM)
Average83 °F52%29.88 "Hg
* Reported Apr 3 9:00 AM — Apr 18 9:00 AM, Abu Dhabi, Weather by CustomWeather, © 2014

Note: Actual official high and low records may vary slightly from our data, if they occured in-between our weather recording intervals... More about our weather records

Advertising

Historic Weather Conditions — Data for Previous 24 hours

 ConditionsComfort  
Time TempWeatherWind HumidityBarometerVisibility
9:00 AM
Apr 18
86 °FPassing clouds.6 mph62%29.80 "HgN/A
8:00 AM81 °FSunny.7 mph74%29.77 "Hg10 mi
7:00 AM79 °FSunny.6 mph70%29.77 "Hg10 mi
6:00 AM79 °FClear.3 mph65%29.74 "Hg6 mi
5:00 AM79 °FPassing clouds.3 mph65%29.74 "HgN/A
4:00 AM82 °FClear.2 mph55%29.71 "Hg10 mi
3:00 AM86 °FClear.2 mph40%29.71 "Hg10 mi
2:00 AM88 °FClear.2 mph33%29.74 "Hg10 mi
1:00 AM88 °FClear.10 mph35%29.74 "Hg10 mi
12:00 AM90 °FClear.14 mph27%29.74 "Hg10 mi
11:00 PM
Apr 17
90 °FClear.9 mph26%29.74 "Hg10 mi
10:00 PM90 °FClear.9 mph29%29.74 "Hg10 mi
9:00 PM91 °FClear.9 mph26%29.74 "Hg10 mi
8:00 PM91 °FClear.10 mph24%29.74 "Hg10 mi
7:00 PM93 °FClear.9 mph24%29.71 "Hg10 mi
6:00 PM95 °FPassing clouds.10 mph25%29.71 "HgN/A
5:00 PM97 °FSunny.14 mph23%29.71 "Hg10 mi
4:00 PM99 °FSunny.14 mph22%29.71 "Hg10 mi
3:00 PM99 °FSunny.12 mph24%29.74 "Hg10 mi
2:00 PM100 °FPassing clouds.14 mph21%29.74 "HgN/A
1:00 PM99 °FSunny.14 mph22%29.77 "Hg10 mi
12:00 PM100 °FPassing clouds.9 mph20%29.80 "HgN/A
11:00 AM91 °FPassing clouds.7 mph41%29.80 "HgN/A
Weather by CustomWeather, © 2014

See weather overview